Location: Saratoga Springs
(43.0831°N, 73.7850°W)
Time: 08:59:44
(UTC-05:00)

ISS - Visible Passes

Search period start: 27 February 2024 00:00
Search period end: 08 March 2024 00:00
Orbit: 414 x 422 km, 51.6° (Epoch: 27 February)

Date Brightness Start Highest point End Pass type
(mag) Time Alt. Az. Time Alt. Az. Time Alt. Az.
27 Feb -1.7 04:45:53 19° N 04:45:57 19° N 04:48:28 10° NE visible
28 Feb -0.7 03:59:51 13° NNE 03:59:51 13° NNE 04:00:30 10° NE visible
28 Feb -1.8 05:32:47 10° NW 05:35:29 22° N 05:38:12 10° ENE visible
29 Feb -1.7 04:46:42 18° N 04:47:22 19° N 04:49:56 10° NE visible
01 Mar -0.9 04:00:36 15° NNE 04:00:36 15° NNE 04:01:42 10° NE visible
01 Mar -2.3 05:33:38 10° NW 05:36:43 32° NNE 05:39:48 10° E visible
02 Mar -1.9 04:47:26 21° NNW 04:48:34 25° NNE 04:51:27 10° ENE visible
03 Mar -1.1 04:01:21 19° NE 04:01:21 19° NE 04:03:02 10° ENE visible
03 Mar -3.4 05:34:16 10° NW 05:37:35 64° NNE 05:40:57 10° ESE visible
04 Mar -2.7 04:48:12 29° NNW 04:49:27 42° NNE 04:52:41 10° E visible
05 Mar -1.6 04:02:12 26° NE 04:02:12 26° NE 04:04:16 10° E visible
05 Mar -3.4 05:35:08 12° WNW 05:38:06 49° SW 05:41:22 10° SE visible
06 Mar -3.9 04:49:11 50° WNW 04:49:58 84° SW 04:53:20 10° SE visible
07 Mar -1.7 04:03:21 27° ESE 04:03:21 27° ESE 04:05:04 10° ESE visible
07 Mar -2.1 05:36:17 12° W 05:38:12 19° SW 05:40:37 10° S visible
